This is the latest recevied weather packets stored in our database for station/object NC4J. If no packets are shown the sender has not sent any weather packets the latest 10 day(s).
| Time | Temp. | Humidity | Pressure | Rain* | Wind** | Luminosity | Snow |
|---|---|---|---|---|---|---|---|
| 1777860520 | 9.44° C | 68% | 1018.1 hPa | 0 mm | - | 0 W/m² | - |
| 1777860216 | 9.44° C | 67% | 1017.7 hPa | 0 mm | - | 0 W/m² | - |
| 1777859912 | 10° C | 65% | 1017.7 hPa | 0 mm | - | 0 W/m² | - |
| 1777859608 | 10° C | 64% | 1017.8 hPa | 0 mm | - | 0 W/m² | - |
| 1777859305 | 10.56° C | 63% | 1017.8 hPa | 0 mm | - | 0 W/m² | - |
| 1777859001 | 10.56° C | 62% | 1017.9 hPa | 0 mm | - | 0 W/m² | - |
| 1777858699 | 10.56° C | 60% | 1017.7 hPa | 0 mm | - | 0 W/m² | - |
| 1777858396 | 11.11° C | 58% | 1017.4 hPa | 0 mm | - | 0 W/m² | - |
| 1777858093 | 11.11° C | 60% | 1017.6 hPa | 0 mm | - | 0 W/m² | - |
| 1777857791 | 11.11° C | 60% | 1017.6 hPa | 0 mm | - | 0 W/m² | - |
| 1777857488 | 11.11° C | 57% | 1017.3 hPa | 0 mm | - | 0 W/m² | - |
| 1777857184 | 11.67° C | 58% | 1017.4 hPa | 0 mm | - | 0 W/m² | - |
| 1777856880 | 11.67° C | 57% | 1017.3 hPa | 0 mm | - | 0 W/m² | - |
| 1777856576 | 11.67° C | 58% | 1017.3 hPa | 0 mm | - | 0 W/m² | - |
| 1777856273 | 11.67° C | 60% | 1017.2 hPa | 0 mm | - | 0 W/m² | - |
| 1777855970 | 12.22° C | 58% | 1017.1 hPa | 0 mm | - | 0 W/m² | - |
| 1777855667 | 12.22° C | 59% | 1016.9 hPa | 0 mm | - | 0 W/m² | - |
| 1777855365 | 12.22° C | 59% | 1017.1 hPa | 0 mm | - | 0 W/m² | - |
| 1777855061 | 12.78° C | 58% | 1017 hPa | 0 mm | - | 0 W/m² | - |
| 1777854758 | 12.78° C | 58% | 1016.7 hPa | 0 mm | - | 0 W/m² | - |
| 1777854454 | 13.33° C | 56% | 1016.9 hPa | 0 mm | - | 0 W/m² | - |
| 1777854151 | 13.89° C | 55% | 1016.8 hPa | 0 mm | - | 1 W/m² | - |
| 1777853849 | 13.89° C | 55% | 1016.7 hPa | 0 mm | - | 1 W/m² | - |
| 1777853546 | 14.44° C | 53% | 1016.9 hPa | 0 mm | - | 2 W/m² | - |
| 1777853243 | 15° C | 54% | 1016.9 hPa | 0 mm | - | 3 W/m² | - |
* Rain latest hour (hover to see other rain measurements)
** Current wind speed in m/s (hover to see current wind gust speed)